| time (UTC) | temp F | wind direction | speed MPH | gust MPH | rain 1hr in | rain 24hr in | rain mn in | humidity % | barometer mb |
| 20260904181833 | 92 | 118 | 1.0 | 2.0 | 0.00 | 0.02 | 0.02 | 61 | 1013.9 |
| 20260904181332 | 91 | 100 | 0.0 | 0.0 | 0.00 | 0.02 | 0.02 | 60 | 1014.1 |
| 20260904180828 | 91 | 113 | 0.0 | 0.0 | 0.00 | 0.02 | 0.02 | 58 | 1014.0 |
| 20260904180323 | 91 | 113 | 0.0 | 0.0 | 0.00 | 0.02 | 0.02 | 58 | 1014.4 |
| 20260904175822 | 91 | 106 | 0.0 | 1.0 | 0.00 | 0.02 | 0.02 | 62 | 1014.3 |
| 20260904175321 | 91 | 93 | 0.0 | 0.0 | 0.00 | 0.02 | 0.02 | 62 | 1014.6 |
| 20260904174821 | 91 | 16 | 1.0 | 1.0 | 0.00 | 0.02 | 0.02 | 60 | 1014.5 |
| 20260904174317 | 91 | 138 | 1.0 | 2.0 | 0.00 | 0.02 | 0.02 | 60 | 1014.7 |
| 20260904173813 | 91 | 127 | 2.0 | 2.0 | 0.00 | 0.02 | 0.02 | 60 | 1014.5 |
| 20260904173308 | 91 | 90 | 0.0 | 0.0 | 0.00 | 0.02 | 0.02 | 61 | 1014.6 |
| 20260904172804 | 91 | 82 | 0.0 | 1.0 | 0.00 | 0.02 | 0.02 | 60 | 1014.4 |
| 20260904172305 | 91 | 55 | 0.0 | 1.0 | 0.00 | 0.02 | 0.02 | 60 | 1014.6 |
| 20260904171758 | 91 | 113 | 0.0 | 0.0 | 0.00 | 0.02 | 0.02 | 61 | 1014.8 |
| 20260904171253 | 90 | 98 | 0.0 | 0.0 | 0.00 | 0.02 | 0.02 | 60 | 1014.9 |
| 20260904170750 | 90 | 98 | 0.0 | 0.0 | 0.00 | 0.02 | 0.02 | 67 | 1015.2 |
| 20260904170245 | 88 | 116 | 0.0 | 0.0 | 0.00 | 0.02 | 0.02 | 67 | 1015.4 |
| 20260904165744 | 88 | 93 | 0.0 | 0.0 | 0.00 | 0.02 | 0.02 | 67 | 1015.2 |
| 20260904165238 | 88 | 120 | 0.0 | 1.0 | 0.00 | 0.02 | 0.02 | 68 | 1015.4 |
| 20260904164733 | 88 | 114 | 0.0 | 1.0 | 0.00 | 0.02 | 0.02 | 71 | 1015.1 |
| 20260904164228 | 88 | 113 | 0.0 | 0.0 | 0.00 | 0.02 | 0.02 | 69 | 1015.3 |
| 20260904163724 | 88 | 126 | 0.0 | 1.0 | 0.00 | 0.02 | 0.02 | 68 | 1015.3 |
| 20260904163219 | 87 | 104 | 0.0 | 0.0 | 0.00 | 0.02 | 0.02 | 73 | 1015.2 |
| 20260904162718 | 86 | 71 | 0.0 | 1.0 | 0.00 | 0.02 | 0.02 | 75 | 1015.3 |
| 20260904162213 | 86 | 102 | 0.0 | 0.0 | 0.00 | 0.02 | 0.02 | 75 | 1015.5 |
| 20260904161709 | 87 | 100 | 0.0 | 0.0 | 0.00 | 0.02 | 0.02 | 70 | 1015.2 |
| 20260904161204 | 87 | 114 | 0.0 | 0.0 | 0.00 | 0.02 | 0.02 | 72 | 1015.5 |
| 20260904160700 | 87 | 115 | 1.0 | 1.0 | 0.00 | 0.02 | 0.02 | 76 | 1015.5 |
| 20260904160155 | 86 | 134 | 0.0 | 1.0 | 0.00 | 0.02 | 0.02 | 75 | 1015.4 |
| 20260904155650 | 86 | 64 | 0.0 | 1.0 | 0.00 | 0.02 | 0.02 | 78 | 1015.3 |
| 20260904155149 | 85 | 81 | 0.0 | 0.0 | 0.00 | 0.02 | 0.02 | 78 | 1015.3 |
| 20260904154648 | 85 | 106 | 0.0 | 0.0 | 0.00 | 0.02 | 0.02 | 84 | 1015.3 |
| 20260904154148 | 85 | 119 | 0.0 | 0.0 | 0.00 | 0.02 | 0.02 | 80 | 1015.1 |
| 20260904153643 | 85 | 124 | 1.0 | 1.0 | 0.00 | 0.02 | 0.02 | 82 | 1015.2 |
| 20260904153138 | 84 | 127 | 0.0 | 1.0 | 0.00 | 0.02 | 0.02 | 82 | 1015.3 |
| 20260904152635 | 84 | 101 | 0.0 | 0.0 | 0.00 | 0.02 | 0.02 | 86 | 1015.2 |
| 20260904152130 | 84 | 102 | 0.0 | 0.0 | 0.00 | 0.02 | 0.02 | 87 | 1015.3 |
| 20260904151625 | 83 | 95 | 0.0 | 0.0 | 0.00 | 0.02 | 0.02 | 87 | 1015.2 |
| 20260904151123 | 83 | 113 | 0.0 | 0.0 | 0.00 | 0.02 | 0.02 | 88 | 1015.2 |
| 20260904150619 | 82 | 116 | 0.0 | 0.0 | 0.00 | 0.02 | 0.02 | 89 | 1015.3 |
| 20260904150115 | 82 | 125 | 0.0 | 0.0 | 0.00 | 0.02 | 0.02 | 90 | 1015.3 |
| 20260904145613 | 82 | 117 | 0.0 | 0.0 | 0.00 | 0.02 | 0.02 | 91 | 1015.3 |
| 20260904145108 | 81 | 117 | 0.0 | 0.0 | 0.00 | 0.02 | 0.02 | 92 | 1015.3 |
| 20260904144604 | 81 | 118 | 0.0 | 0.0 | 0.00 | 0.02 | 0.02 | 93 | 1015.3 |
| 20260904144100 | 80 | 110 | 0.0 | 0.0 | 0.00 | 0.02 | 0.02 | 94 | 1015.4 |
| 20260904143555 | 80 | 105 | 0.0 | 0.0 | 0.00 | 0.02 | 0.02 | 95 | 1015.2 |
| 20260904143052 | 79 | 99 | 0.0 | 0.0 | 0.00 | 0.02 | 0.02 | 96 | 1015.3 |
| 20260904142548 | 79 | 116 | 0.0 | 0.0 | 0.00 | 0.02 | 0.02 | 96 | 1015.2 |
| 20260904142043 | 78 | 117 | 0.0 | 0.0 | 0.00 | 0.02 | 0.02 | 97 | 1015.2 |
| 20260904141538 | 78 | 115 | 0.0 | 0.0 | 0.00 | 0.02 | 0.02 | 98 | 1015.4 |
| 20260904141034 | 78 | 119 | 0.0 | 0.0 | 0.00 | 0.02 | 0.02 | 98 | 1015.3 |
| 20260904140533 | 77 | 120 | 0.0 | 0.0 | 0.00 | 0.02 | 0.02 | 99 | 1015.0 |
| 20260904140028 | 77 | 120 | 0.0 | 0.0 | 0.00 | 0.02 | 0.02 | 99 | 1015.1 |
| 20260904135527 | 77 | 118 | 0.0 | 0.0 | 0.00 | 0.02 | 0.02 | 99 | 1015.1 |
| 20260904135024 | 76 | 101 | 0.0 | 0.0 | 0.00 | 0.02 | 0.02 | 99 | 1015.3 |
| 20260904134519 | 76 | 100 | 0.0 | 0.0 | 0.00 | 0.02 | 0.02 | 99 | 1015.1 |
| 20260904134013 | 75 | 100 | 0.0 | 0.0 | 0.00 | 0.02 | 0.02 | 99 | 1014.9 |
| 20260904133508 | 75 | 100 | 0.0 | 0.0 | 0.00 | 0.02 | 0.02 | 99 | 1015.1 |
| 20260904133004 | 75 | 100 | 0.0 | 0.0 | 0.00 | 0.02 | 0.02 | 99 | 1015.0 |
| 20260904132504 | 75 | 100 | 0.0 | 0.0 | 0.00 | 0.02 | 0.02 | 99 | 1014.9 |
| 20260904131958 | 74 | 100 | 0.0 | 0.0 | 0.00 | 0.02 | 0.02 | 99 | 1014.9 |
| 20260904131453 | 74 | 100 | 0.0 | 0.0 | 0.00 | 0.02 | 0.02 | 99 | 1014.9 |
| 20260904130949 | 74 | 100 | 0.0 | 0.0 | 0.00 | 0.02 | 0.02 | 99 | 1015.0 |
| 20260904130448 | 73 | 100 | 0.0 | 0.0 | 0.00 | 0.02 | 0.02 | 99 | 1014.6 |
| 20260904125943 | 73 | 100 | 0.0 | 0.0 | 0.00 | 0.02 | 0.02 | 99 | 1014.6 |
| 20260904125439 | 73 | 101 | 0.0 | 0.0 | 0.00 | 0.02 | 0.02 | 99 | 1014.5 |
| 20260904124938 | 73 | 101 | 0.0 | 0.0 | 0.00 | 0.02 | 0.02 | 99 | 1014.8 |
| 20260904124435 | 73 | 101 | 0.0 | 0.0 | 0.00 | 0.02 | 0.02 | 99 | 1014.6 |
| 20260904123930 | 73 | 101 | 0.0 | 0.0 | 0.00 | 0.02 | 0.02 | 99 | 1014.5 |
| 20260904123424 | 73 | 101 | 0.0 | 0.0 | 0.00 | 0.02 | 0.02 | 99 | 1014.6 |
| 20260904122920 | 73 | 101 | 0.0 | 0.0 | 0.00 | 0.02 | 0.02 | 99 | 1014.6 |
| 20260904122420 | 73 | 101 | 0.0 | 0.0 | 0.00 | 0.02 | 0.02 | 99 | 1014.3 |
| 20260904121914 | 73 | 101 | 0.0 | 0.0 | 0.00 | 0.02 | 0.02 | 99 | 1014.2 |
| 20260904121411 | 73 | 101 | 0.0 | 0.0 | 0.00 | 0.02 | 0.02 | 99 | 1014.1 |
| 20260904120907 | 73 | 101 | 0.0 | 0.0 | 0.00 | 0.02 | 0.02 | 99 | 1014.1 |
| 20260904120403 | 73 | 101 | 0.0 | 0.0 | 0.00 | 0.02 | 0.02 | 99 | 1014.1 |
| 20260904115858 | 73 | 101 | 0.0 | 0.0 | 0.00 | 0.02 | 0.02 | 99 | 1014.4 |
| 20260904115353 | 73 | 101 | 0.0 | 0.0 | 0.07 | 0.02 | 0.02 | 99 | 1014.1 |
| 20260904114847 | 73 | 101 | 0.0 | 0.0 | 0.07 | 0.02 | 0.02 | 99 | 1014.0 |
| 20260904114342 | 73 | 101 | 0.0 | 0.0 | 0.00 | 0.01 | 0.01 | 99 | 1013.9 |
| 20260904113837 | 73 | 101 | 0.0 | 0.0 | 0.00 | 0.01 | 0.01 | 99 | 1014.0 |
| 20260904113337 | 73 | 101 | 0.0 | 0.0 | 0.00 | 0.01 | 0.01 | 99 | 1013.8 |
| 20260904112832 | 73 | 101 | 0.0 | 0.0 | 0.00 | 0.01 | 0.01 | 99 | 1014.2 |
| 20260904112327 | 73 | 101 | 0.0 | 0.0 | 0.00 | 0.01 | 0.01 | 99 | 1013.9 |
| 20260904111823 | 73 | 101 | 0.0 | 0.0 | 0.00 | 0.01 | 0.01 | 99 | 1014.0 |
| 20260904111319 | 73 | 101 | 0.0 | 0.0 | 0.00 | 0.01 | 0.01 | 99 | 1014.2 |
| 20260904110814 | 73 | 101 | 0.0 | 0.0 | 0.00 | 0.01 | 0.01 | 99 | 1013.9 |
| 20260904110313 | 73 | 101 | 0.0 | 0.0 | 0.00 | 0.01 | 0.01 | 99 | 1014.1 |
| 20260904105808 | 73 | 101 | 0.0 | 0.0 | 0.00 | 0.01 | 0.01 | 99 | 1014.1 |
| 20260904105305 | 73 | 101 | 0.0 | 0.0 | 0.00 | 0.01 | 0.01 | 99 | 1014.1 |
| 20260904104757 | 73 | 101 | 0.0 | 0.0 | 0.00 | 0.01 | 0.01 | 99 | 1013.9 |
| 20260904104253 | 73 | 101 | 0.0 | 0.0 | 0.00 | 0.01 | 0.01 | 99 | 1013.8 |
| 20260904103750 | 73 | 101 | 0.0 | 0.0 | 0.00 | 0.01 | 0.01 | 99 | 1013.8 |
| 20260904103249 | 73 | 101 | 0.0 | 0.0 | 0.00 | 0.01 | 0.01 | 99 | 1014.0 |
| 20260904102745 | 73 | 101 | 0.0 | 0.0 | 0.00 | 0.01 | 0.01 | 99 | 1013.8 |
| 20260904102241 | 73 | 101 | 0.0 | 0.0 | 0.00 | 0.01 | 0.01 | 99 | 1013.5 |
| 20260904101737 | 73 | 101 | 0.0 | 0.0 | 0.00 | 0.01 | 0.01 | 99 | 1013.5 |
| 20260904101233 | 73 | 101 | 0.0 | 0.0 | 0.00 | 0.01 | 0.01 | 99 | 1013.6 |
| 20260904100728 | 74 | 101 | 0.0 | 0.0 | 0.00 | 0.01 | 0.01 | 99 | 1013.7 |
| 20260904100224 | 73 | 101 | 0.0 | 0.0 | 0.00 | 0.01 | 0.01 | 99 | 1013.9 |
| 20260904095723 | 73 | 101 | 0.0 | 0.0 | 0.00 | 0.01 | 0.01 | 99 | 1013.5 |
| 20260904095218 | 73 | 101 | 0.0 | 0.0 | 0.00 | 0.01 | 0.01 | 99 | 1013.6 |
| 20260904094714 | 73 | 102 | 0.0 | 0.0 | 0.00 | 0.01 | 0.01 | 99 | 1013.3 |
| 20260904094214 | 74 | 102 | 0.0 | 0.0 | 0.00 | 0.01 | 0.01 | 99 | 1013.4 |
| 20260904093711 | 73 | 102 | 0.0 | 0.0 | 0.00 | 0.01 | 0.01 | 99 | 1013.4 |
| 20260904093210 | 74 | 102 | 0.0 | 0.0 | 0.00 | 0.01 | 0.01 | 99 | 1013.5 |
| 20260904092706 | 74 | 102 | 0.0 | 0.0 | 0.00 | 0.01 | 0.01 | 99 | 1013.7 |
| 20260904092202 | 74 | 102 | 0.0 | 0.0 | 0.00 | 0.01 | 0.01 | 99 | 1013.6 |
| 20260904091658 | 74 | 102 | 0.0 | 0.0 | 0.00 | 0.01 | 0.01 | 99 | 1013.4 |
| 20260904091158 | 74 | 102 | 0.0 | 0.0 | 0.00 | 0.01 | 0.01 | 99 | 1013.3 |
| 20260904090653 | 74 | 102 | 0.0 | 0.0 | 0.00 | 0.01 | 0.01 | 99 | 1013.4 |
| 20260904090149 | 74 | 102 | 0.0 | 0.0 | 0.00 | 0.01 | 0.01 | 99 | 1013.3 |
| 20260904085644 | 74 | 102 | 0.0 | 0.0 | 0.00 | 0.01 | 0.01 | 99 | 1013.3 |
| 20260904085138 | 74 | 102 | 0.0 | 0.0 | 0.00 | 0.01 | 0.01 | 99 | 1013.3 |
| 20260904084633 | 74 | 102 | 0.0 | 0.0 | 0.00 | 0.01 | 0.01 | 99 | 1013.5 |
| 20260904084130 | 74 | 101 | 0.0 | 0.0 | 0.00 | 0.01 | 0.01 | 99 | 1013.4 |
| 20260904083626 | 74 | 101 | 0.0 | 0.0 | 0.00 | 0.01 | 0.01 | 99 | 1013.4 |
| 20260904083121 | 74 | 101 | 0.0 | 0.0 | 0.00 | 0.01 | 0.01 | 99 | 1013.4 |
| 20260904082616 | 74 | 101 | 0.0 | 0.0 | 0.00 | 0.01 | 0.01 | 99 | 1013.2 |
| 20260904082112 | 74 | 101 | 0.0 | 0.0 | 0.00 | 0.01 | 0.01 | 99 | 1013.2 |
| 20260904081607 | 74 | 101 | 0.0 | 0.0 | 0.00 | 0.01 | 0.01 | 99 | 1013.1 |
| 20260904081102 | 74 | 101 | 0.0 | 0.0 | 0.00 | 0.01 | 0.01 | 99 | 1013.3 |
| 20260904080557 | 74 | 101 | 0.0 | 0.0 | 0.00 | 0.01 | 0.01 | 99 | 1013.2 |
| 20260904080054 | 74 | 101 | 0.0 | 0.0 | 0.00 | 0.01 | 0.01 | 99 | 1013.2 |
| 20260904075549 | 74 | 101 | 0.0 | 0.0 | 0.00 | 0.01 | 0.01 | 99 | 1013.2 |
| 20260904075044 | 74 | 101 | 0.0 | 0.0 | 0.00 | 0.01 | 0.01 | 99 | 1013.2 |
| 20260904074543 | 74 | 101 | 0.0 | 0.0 | 0.00 | 0.01 | 0.01 | 99 | 1013.2 |
| 20260904074038 | 74 | 101 | 0.0 | 0.0 | 0.00 | 0.01 | 0.01 | 99 | 1013.2 |
| 20260904073533 | 74 | 101 | 0.0 | 0.0 | 0.00 | 0.01 | 0.01 | 99 | 1013.1 |
| 20260904073029 | 74 | 101 | 0.0 | 0.0 | 0.00 | 0.01 | 0.01 | 99 | 1013.3 |
| 20260904072525 | 75 | 101 | 0.0 | 0.0 | 0.00 | 0.01 | 0.01 | 99 | 1013.3 |
| 20260904072020 | 74 | 101 | 0.0 | 0.0 | 0.00 | 0.01 | 0.01 | 99 | 1013.3 |
| 20260904071515 | 74 | 101 | 0.0 | 0.0 | 0.05 | 0.01 | 0.01 | 99 | 1013.3 |
| 20260904071010 | 75 | 101 | 0.0 | 0.0 | 0.05 | 0.01 | 0.01 | 99 | 1013.5 |
| 20260904070509 | 75 | 101 | 0.0 | 0.0 | 0.00 | 0.00 | 0.00 | 99 | 1013.3 |
| 20260904070004 | 75 | 101 | 0.0 | 0.0 | 0.00 | 0.00 | 0.00 | 99 | 1013.4 |
| 20260904065459 | 74 | 101 | 0.0 | 0.0 | 0.00 | 0.00 | 0.00 | 99 | 1013.4 |
| 20260904064955 | 74 | 101 | 0.0 | 0.0 | 0.00 | 0.00 | 0.00 | 99 | 1013.4 |
| 20260904064451 | 75 | 101 | 0.0 | 0.0 | 0.00 | 0.00 | 0.00 | 99 | 1013.1 |
| 20260904063945 | 75 | 101 | 0.0 | 0.0 | 0.00 | 0.00 | 0.00 | 98 | 1013.4 |
| 20260904063442 | 75 | 101 | 0.0 | 0.0 | 0.00 | 0.00 | 0.00 | 98 | 1013.3 |
| 20260904062937 | 75 | 101 | 0.0 | 0.0 | 0.00 | 0.00 | 0.00 | 98 | 1013.2 |
| 20260904062433 | 75 | 101 | 0.0 | 0.0 | 0.00 | 0.00 | 0.00 | 98 | 1013.4 |
| 20260904061928 | 75 | 101 | 0.0 | 0.0 | 0.00 | 0.00 | 0.00 | 98 | 1013.3 |
| 20260904061425 | 75 | 101 | 0.0 | 0.0 | 0.00 | 0.00 | 0.00 | 98 | 1013.3 |
| 20260904060920 | 75 | 101 | 0.0 | 0.0 | 0.00 | 0.00 | 0.00 | 98 | 1013.1 |
| 20260904060416 | 75 | 101 | 0.0 | 0.0 | 0.00 | 0.00 | 0.00 | 97 | 1013.1 |
| 20260904055912 | 75 | 101 | 0.0 | 0.0 | 0.00 | 0.00 | 0.00 | 97 | 1013.2 |
| 20260904055407 | 75 | 101 | 0.0 | 0.0 | 0.00 | 0.00 | 0.00 | 97 | 1013.2 |
| 20260904054903 | 75 | 101 | 0.0 | 0.0 | 0.00 | 0.00 | 0.00 | 97 | 1013.1 |
| 20260904054358 | 75 | 101 | 0.0 | 0.0 | 0.00 | 0.00 | 0.00 | 97 | 1013.0 |
| 20260904053853 | 75 | 101 | 0.0 | 0.0 | 0.00 | 0.00 | 0.00 | 97 | 1012.9 |
| 20260904053353 | 76 | 101 | 0.0 | 0.0 | 0.00 | 0.00 | 0.00 | 96 | 1012.8 |
| 20260904052849 | 76 | 101 | 0.0 | 0.0 | 0.00 | 0.00 | 0.00 | 96 | 1013.0 |
| 20260904052345 | 76 | 101 | 0.0 | 0.0 | 0.00 | 0.00 | 0.00 | 96 | 1013.1 |
| 20260904051841 | 76 | 101 | 0.0 | 0.0 | 0.00 | 0.00 | 0.00 | 96 | 1013.2 |
| 20260904051337 | 76 | 101 | 0.0 | 0.0 | 0.00 | 0.00 | 0.00 | 96 | 1013.2 |
| 20260904050831 | 76 | 101 | 0.0 | 0.0 | 0.00 | 0.00 | 0.00 | 96 | 1012.9 |
| 20260904050328 | 76 | 101 | 0.0 | 0.0 | 0.00 | 0.00 | 0.00 | 96 | 1013.0 |
| 20260904045828 | 76 | 101 | 0.0 | 0.0 | 0.00 | 0.40 | 0.40 | 95 | 1013.1 |
| 20260904045323 | 76 | 101 | 0.0 | 0.0 | 0.00 | 0.40 | 0.40 | 95 | 1013.1 |
| 20260904044823 | 76 | 101 | 0.0 | 0.0 | 0.00 | 0.40 | 0.40 | 95 | 1013.3 |
| 20260904044320 | 76 | 101 | 0.0 | 0.0 | 0.00 | 0.40 | 0.40 | 95 | 1013.3 |
| 20260904043815 | 76 | 101 | 0.0 | 0.0 | 0.00 | 0.40 | 0.40 | 95 | 1013.2 |
| 20260904043312 | 76 | 101 | 0.0 | 0.0 | 0.07 | 0.40 | 0.40 | 95 | 1013.4 |
| 20260904042806 | 77 | 101 | 0.0 | 0.0 | 0.07 | 0.40 | 0.40 | 94 | 1013.4 |
| 20260904042306 | 77 | 101 | 0.0 | 0.0 | 0.00 | 0.39 | 0.39 | 94 | 1013.1 |
| 20260904041802 | 77 | 101 | 0.0 | 0.0 | 0.00 | 0.39 | 0.39 | 94 | 1013.3 |
| 20260904041259 | 77 | 101 | 0.0 | 0.0 | 0.00 | 0.39 | 0.39 | 93 | 1013.3 |
| 20260904040754 | 77 | 101 | 0.0 | 0.0 | 0.00 | 0.39 | 0.39 | 93 | 1013.4 |
| 20260904040250 | 77 | 101 | 0.0 | 0.0 | 0.00 | 0.39 | 0.39 | 94 | 1013.2 |
| 20260904035746 | 77 | 101 | 0.0 | 0.0 | 0.00 | 0.39 | 0.39 | 94 | 1013.2 |
| 20260904035241 | 77 | 101 | 0.0 | 0.0 | 0.00 | 0.39 | 0.39 | 93 | 1013.3 |
| 20260904034740 | 77 | 101 | 0.0 | 0.0 | 0.00 | 0.39 | 0.39 | 93 | 1013.1 |
| 20260904034236 | 78 | 101 | 0.0 | 0.0 | 0.00 | 0.39 | 0.39 | 92 | 1013.2 |
| 20260904033731 | 78 | 101 | 0.0 | 0.0 | 0.00 | 0.39 | 0.39 | 92 | 1013.3 |
| 20260904033228 | 78 | 101 | 0.0 | 0.0 | 0.00 | 0.39 | 0.39 | 91 | 1013.2 |
| 20260904032724 | 78 | 101 | 0.0 | 0.0 | 0.00 | 0.39 | 0.39 | 91 | 1013.4 |
| 20260904032222 | 78 | 101 | 0.0 | 0.0 | 0.00 | 0.39 | 0.39 | 91 | 1013.4 |
| 20260904031718 | 78 | 101 | 0.0 | 0.0 | 0.00 | 0.39 | 0.39 | 90 | 1013.2 |
| 20260904031213 | 78 | 101 | 0.0 | 0.0 | 0.00 | 0.39 | 0.39 | 89 | 1013.5 |
| 20260904030709 | 78 | 101 | 0.0 | 0.0 | 0.00 | 0.39 | 0.39 | 90 | 1013.4 |
| 20260904030204 | 78 | 101 | 0.0 | 0.0 | 0.00 | 0.39 | 0.39 | 90 | 1013.2 |
| 20260904025700 | 78 | 101 | 0.0 | 0.0 | 0.00 | 0.39 | 0.39 | 90 | 1013.2 |
| 20260904025155 | 79 | 101 | 0.0 | 0.0 | 0.00 | 0.39 | 0.39 | 90 | 1013.2 |
| 20260904024650 | 79 | 101 | 0.0 | 0.0 | 0.00 | 0.39 | 0.39 | 88 | 1013.0 |
| 20260904024146 | 79 | 101 | 0.0 | 0.0 | 0.05 | 0.39 | 0.39 | 88 | 1013.0 |
| 20260904023642 | 79 | 101 | 0.0 | 0.0 | 0.05 | 0.39 | 0.39 | 86 | 1013.0 |
| 20260904023138 | 80 | 101 | 0.0 | 0.0 | 0.00 | 0.38 | 0.38 | 86 | 1012.8 |
| 20260904022637 | 80 | 101 | 0.0 | 0.0 | 0.00 | 0.38 | 0.38 | 86 | 1012.9 |
| 20260904022134 | 80 | 102 | 0.0 | 0.0 | 0.00 | 0.38 | 0.38 | 86 | 1012.9 |
| 20260904021630 | 80 | 101 | 0.0 | 0.0 | 0.00 | 0.38 | 0.38 | 85 | 1012.6 |
| 20260904021125 | 80 | 102 | 0.0 | 0.0 | 0.00 | 0.38 | 0.38 | 83 | 1012.6 |
| 20260904020621 | 80 | 102 | 0.0 | 0.0 | 0.00 | 0.38 | 0.38 | 84 | 1012.4 |
| 20260904020115 | 80 | 102 | 0.0 | 0.0 | 0.00 | 0.38 | 0.38 | 84 | 1012.4 |
| 20260904015609 | 81 | 102 | 0.0 | 0.0 | 0.00 | 0.38 | 0.38 | 86 | 1012.4 |
| 20260904015108 | 81 | 102 | 0.0 | 0.0 | 0.00 | 0.38 | 0.38 | 83 | 1012.3 |
| 20260904014602 | 81 | 102 | 0.0 | 0.0 | 0.00 | 0.38 | 0.38 | 84 | 1012.4 |
| 20260904014057 | 81 | 102 | 0.0 | 0.0 | 0.00 | 0.38 | 0.38 | 82 | 1012.2 |
| 20260904013554 | 81 | 102 | 0.0 | 0.0 | 0.00 | 0.38 | 0.38 | 80 | 1011.9 |
| 20260904013051 | 81 | 102 | 0.0 | 0.0 | 0.00 | 0.38 | 0.38 | 81 | 1012.0 |
| 20260904012550 | 81 | 102 | 0.0 | 0.0 | 0.00 | 0.38 | 0.38 | 81 | 1012.0 |
| 20260904012044 | 81 | 102 | 0.0 | 0.0 | 0.00 | 0.38 | 0.38 | 80 | 1012.1 |
| 20260904011543 | 82 | 102 | 0.0 | 0.0 | 0.00 | 0.38 | 0.38 | 84 | 1011.8 |
| 20260904011039 | 82 | 102 | 0.0 | 0.0 | 0.00 | 0.38 | 0.38 | 80 | 1011.9 |
| 20260904010535 | 82 | 102 | 0.0 | 0.0 | 0.00 | 0.38 | 0.38 | 80 | 1011.7 |
| 20260904010031 | 83 | 102 | 0.0 | 0.0 | 0.00 | 0.38 | 0.38 | 78 | 1011.7 |
| 20260904005526 | 83 | 102 | 0.0 | 0.0 | 0.07 | 0.38 | 0.38 | 78 | 1011.7 |
| 20260904005021 | 84 | 102 | 0.0 | 0.0 | 0.07 | 0.38 | 0.38 | 76 | 1011.4 |
| 20260904004517 | 84 | 102 | 0.0 | 0.0 | 0.00 | 0.37 | 0.37 | 75 | 1011.6 |
| 20260904004017 | 84 | 102 | 0.0 | 0.0 | 0.00 | 0.37 | 0.37 | 75 | 1011.7 |
| 20260904003513 | 85 | 102 | 0.0 | 0.0 | 0.00 | 0.37 | 0.37 | 74 | 1011.6 |
| 20260904003008 | 85 | 102 | 0.0 | 0.0 | 0.00 | 0.37 | 0.37 | 73 | 1011.5 |
| 20260904002505 | 85 | 102 | 0.0 | 0.0 | 0.00 | 0.37 | 0.37 | 73 | 1011.5 |
| 20260904002003 | 86 | 102 | 0.0 | 0.0 | 0.00 | 0.37 | 0.37 | 72 | 1011.6 |
| 20260904001459 | 86 | 104 | 0.0 | 0.0 | 0.00 | 0.37 | 0.37 | 71 | 1011.6 |
| 20260904000953 | 86 | 104 | 0.0 | 0.0 | 0.00 | 0.37 | 0.37 | 73 | 1011.4 |
| 20260904000455 | 87 | 103 | 0.0 | 0.0 | 0.00 | 0.37 | 0.37 | 68 | 1011.3 |
| 20260903235948 | 87 | 106 | 0.0 | 0.0 | 0.00 | 0.37 | 0.37 | 69 | 1011.3 |
| 20260903235444 | 87 | 103 | 0.0 | 0.0 | 0.00 | 0.37 | 0.37 | 67 | 1011.3 |
| 20260903234938 | 87 | 98 | 0.0 | 0.0 | 0.00 | 0.37 | 0.37 | 68 | 1011.2 |
| 20260903234433 | 87 | 98 | 0.0 | 0.0 | 0.00 | 0.37 | 0.37 | 68 | 1011.4 |
| 20260903233930 | 88 | 97 | 0.0 | 0.0 | 0.00 | 0.37 | 0.37 | 67 | 1011.4 |
| 20260903233425 | 87 | 129 | 1.0 | 1.0 | 0.00 | 0.37 | 0.37 | 67 | 1011.4 |
| 20260903232920 | 87 | 100 | 0.0 | 0.0 | 0.00 | 0.37 | 0.37 | 70 | 1011.4 |
| 20260903232415 | 87 | 100 | 0.0 | 0.0 | 0.00 | 0.37 | 0.37 | 69 | 1011.4 |
| 20260903231915 | 88 | 110 | 0.0 | 0.0 | 0.05 | 0.37 | 0.37 | 69 | 1011.5 |
| 20260903231410 | 89 | 124 | 1.0 | 1.0 | 0.05 | 0.37 | 0.37 | 64 | 1011.2 |
| 20260903230905 | 89 | 107 | 0.0 | 0.0 | 0.00 | 0.36 | 0.36 | 63 | 1011.4 |
| 20260903230400 | 89 | 111 | 0.0 | 0.0 | 0.00 | 0.36 | 0.36 | 64 | 1011.3 |
| 20260903225856 | 89 | 100 | 0.0 | 0.0 | 0.00 | 0.36 | 0.36 | 65 | 1011.2 |
| 20260903225352 | 88 | 111 | 1.0 | 1.0 | 0.00 | 0.36 | 0.36 | 64 | 1011.4 |
| 20260903224848 | 88 | 102 | 0.0 | 0.0 | 0.00 | 0.36 | 0.36 | 68 | 1011.1 |
| 20260903224344 | 89 | 101 | 0.0 | 0.0 | 0.00 | 0.36 | 0.36 | 68 | 1011.4 |
| 20260903223839 | 90 | 106 | 0.0 | 0.0 | 0.00 | 0.36 | 0.36 | 61 | 1011.7 |
| 20260903223338 | 90 | 123 | 0.0 | 0.0 | 0.00 | 0.36 | 0.36 | 62 | 1011.6 |
| 20260903222833 | 90 | 99 | 0.0 | 0.0 | 0.00 | 0.36 | 0.36 | 64 | 1011.6 |
| 20260903222333 | 90 | 128 | 1.0 | 1.0 | 0.00 | 0.36 | 0.36 | 62 | 1011.7 |
| 20260903221827 | 90 | 98 | 0.0 | 0.0 | 0.00 | 0.36 | 0.36 | 61 | 1011.6 |
| 20260903221326 | 90 | 115 | 0.0 | 1.0 | 0.00 | 0.36 | 0.36 | 63 | 1011.7 |
| 20260903220824 | 89 | 120 | 1.0 | 1.0 | 0.00 | 0.36 | 0.36 | 62 | 1011.7 |
| 20260903220318 | 90 | 106 | 0.0 | 0.0 | 0.00 | 0.36 | 0.36 | 62 | 1011.6 |
| 20260903215811 | 90 | 119 | 0.0 | 0.0 | 0.00 | 0.36 | 0.36 | 59 | 1011.9 |
| 20260903215308 | 90 | 140 | 1.0 | 1.0 | 0.07 | 0.36 | 0.36 | 59 | 1012.0 |
| 20260903214806 | 91 | 99 | 0.0 | 0.0 | 0.07 | 0.36 | 0.36 | 59 | 1012.1 |
| 20260903214302 | 91 | 182 | 2.0 | 2.0 | 0.00 | 0.35 | 0.35 | 59 | 1012.1 |
| 20260903213756 | 90 | 127 | 1.0 | 1.0 | 0.00 | 0.35 | 0.35 | 59 | 1012.1 |
| 20260903213252 | 91 | 117 | 1.0 | 1.0 | 0.00 | 0.35 | 0.35 | 60 | 1012.0 |
| 20260903212748 | 90 | 94 | 0.0 | 0.0 | 0.00 | 0.35 | 0.35 | 60 | 1012.0 |
| 20260903212244 | 90 | 94 | 0.0 | 0.0 | 0.00 | 0.35 | 0.35 | 61 | 1011.9 |
| 20260903211743 | 89 | 94 | 0.0 | 0.0 | 0.00 | 0.35 | 0.35 | 65 | 1011.9 |
| 20260903211240 | 89 | 58 | 1.0 | 1.0 | 0.00 | 0.35 | 0.35 | 65 | 1012.1 |
| 20260903210736 | 90 | 86 | 0.0 | 0.0 | 0.00 | 0.35 | 0.35 | 64 | 1012.2 |
| 20260903210230 | 91 | 100 | 0.0 | 0.0 | 0.00 | 0.35 | 0.35 | 61 | 1011.9 |
| 20260903205725 | 90 | 130 | 1.0 | 1.0 | 0.00 | 0.35 | 0.35 | 64 | 1012.2 |
| 20260903205224 | 90 | 93 | 0.0 | 0.0 | 0.00 | 0.35 | 0.35 | 64 | 1012.4 |
| 20260903204720 | 91 | 118 | 0.0 | 1.0 | 0.00 | 0.35 | 0.35 | 61 | 1012.2 |
| 20260903204216 | 91 | 103 | 0.0 | 0.0 | 0.05 | 0.35 | 0.35 | 65 | 1012.4 |
| 20260903203711 | 91 | 127 | 0.0 | 1.0 | 0.00 | 0.34 | 0.34 | 60 | 1012.3 |
| 20260903203206 | 91 | 144 | 0.0 | 0.0 | 0.00 | 0.34 | 0.34 | 60 | 1012.3 |
| 20260903202700 | 90 | 143 | 0.0 | 1.0 | 0.00 | 0.34 | 0.34 | 62 | 1012.5 |
| 20260903202156 | 89 | 100 | 0.0 | 0.0 | 0.00 | 0.34 | 0.34 | 63 | 1012.5 |
| 20260903201655 | 90 | 103 | 0.0 | 0.0 | 0.00 | 0.34 | 0.34 | 63 | 1012.6 |
| 20260903201150 | 90 | 129 | 1.0 | 2.0 | 0.00 | 0.34 | 0.34 | 65 | 1013.1 |
| 20260903200644 | 89 | 102 | 0.0 | 0.0 | 0.00 | 0.34 | 0.34 | 64 | 1013.0 |
| 20260903200140 | 90 | 127 | 0.0 | 0.0 | 0.00 | 0.34 | 0.34 | 62 | 1013.1 |
| 20260903195636 | 89 | 147 | 0.0 | 0.0 | 0.00 | 0.34 | 0.34 | 63 | 1012.9 |
| 20260903195132 | 88 | 119 | 1.0 | 1.0 | 0.00 | 0.34 | 0.34 | 66 | 1013.1 |
| 20260903194627 | 88 | 23 | 2.0 | 2.0 | 0.07 | 0.34 | 0.34 | 67 | 1013.1 |
| 20260903194127 | 89 | 105 | 0.0 | 0.0 | 0.07 | 0.34 | 0.34 | 66 | 1013.3 |
| 20260903193622 | 89 | 97 | 0.0 | 0.0 | 0.00 | 0.33 | 0.33 | 65 | 1013.4 |
| 20260903193118 | 88 | 95 | 0.0 | 1.0 | 0.00 | 0.33 | 0.33 | 67 | 1013.3 |
| 20260903192615 | 88 | 110 | 1.0 | 1.0 | 0.00 | 0.33 | 0.33 | 70 | 1013.4 |
| 20260903192114 | 88 | 107 | 0.0 | 0.0 | 0.00 | 0.33 | 0.33 | 66 | 1013.3 |
| 20260903191611 | 88 | 121 | 1.0 | 1.0 | 0.00 | 0.33 | 0.33 | 68 | 1013.4 |
| 20260903191105 | 88 | 111 | 1.0 | 1.0 | 0.00 | 0.33 | 0.33 | 69 | 1013.4 |
| 20260903190604 | 88 | 121 | 0.0 | 1.0 | 0.00 | 0.33 | 0.33 | 68 | 1013.6 |
| 20260903190059 | 88 | 111 | 0.0 | 1.0 | 0.00 | 0.33 | 0.33 | 67 | 1013.8 |
| 20260903185555 | 88 | 108 | 0.0 | 1.0 | 0.00 | 0.33 | 0.33 | 66 | 1013.7 |
| 20260903185050 | 87 | 127 | 0.0 | 1.0 | 0.00 | 0.33 | 0.33 | 69 | 1013.6 |
| 20260903184546 | 87 | 214 | 1.0 | 1.0 | 0.07 | 0.33 | 0.33 | 68 | 1013.9 |
| 20260903184041 | 87 | 133 | 0.0 | 0.0 | 0.07 | 0.33 | 0.33 | 69 | 1014.0 |
| 20260903183540 | 87 | 86 | 0.0 | 1.0 | 0.00 | 0.32 | 0.32 | 69 | 1014.1 |
| 20260903183035 | 87 | 127 | 0.0 | 0.0 | 0.00 | 0.32 | 0.32 | 71 | 1013.9 |
| 20260903182534 | 87 | 113 | 0.0 | 1.0 | 0.00 | 0.32 | 0.32 | 70 | 1014.4 |
| 20260903182031 | 88 | 142 | 0.0 | 1.0 | 0.00 | 0.32 | 0.32 | 69 | 1014.2 |